STARLINK-37558, 69239

Orbit data source: Space-Track

STARLINK-37558, 69239 is a payload satellite owned by SpaceX/Seattle (US) in LEO that was launched on Fri, 29 May 2026 UTC via an FALCON 9 launch vehicle from the Air Force Eastern Test Range (AFETR). Payload-class satellites include a variety of spacecraft equipped with specific instruments for various scientific and technological missions. These include communications satellites like Starlink; space stations such as the ISS; scientific satellites like the Hubble; Earth observation satellites from companies like Planet Labs, Umbra, and HawkEye 360; GPS; miniature CubeSats for education and research; and military/defense satellites.

Not visible in the next 10 days
Identifier
69239, 2026-117B
Orbit
LEO
Country
Flag of USUS
Related business
Manufacturer
SpaceX/Seattle
Mission
Operational spacecraft
Bus & Motor
STARLINK V2MO, Unknown motor
Mass
575 kg wet, ~530 kg dry
Launch date (UTC)
2026-05-29 (2 weeks ago)
Launch vehicle
FALCON 9
Launch site
Air Force Eastern Test Range (AFETR)
Object type
Payload
Rocket body
Debris
Shape & HBR
Unknown
Radar Cross Section
RCS unknown

Expand to show TLE details & history
Last TLE update: 6 days ago

TLE from 6 days ago
0 STARLINK-37558
1 69239U 26117B   26155.25004630 -.02065343  12690-2 -38327-2 0  9995
2 69239  53.1585 308.8470 0000467  65.5477 263.8616 16.00585011  2099
Epoch: 2026-06-04T06:00Z
TLE epoch observation values (Epoch: 2026-06-04T06:00:04.000Z)
Latitude
-24.23839°
Longitude
-53.46391°
Altitude
279.841 km
Speed
7.739 km/s
True Right ascension
19h 16m 59s
True Declination
-24° 06' 02"
Sunlit
Object was in full shadow at epoch
Visualization orbit readout
Latitude
Unknown
Longitude
Unknown
Altitude
Unknown
Speed
Unknown
Apparent Right ascension
Unknown
Apparent Declination
Unknown
Sunlit
N/A
Visualization observer readout
Local Sidereal Time
13:15:50
Azimuth
Unknown
Elevation
Unknown
Doppler factor
Unknown
Orbital elements
Apogee altitude
273.372 km
Perigee altitude
272.751 km
Semi-major axis
6,651.199 km
Eccentricity
0.00005
Inclination
53.1585°
RAAN
308.847°
Arg. of periapsis
65.5477°
True anomaly
263.85628°
Mean anomaly
263.8616°
Eccentric anomaly
263.85894°
Mean motion
4.00123 °/min
Orbital period
89.97 mins
BSTAR
-0.0038327
Loading maneuver chart data...
Computing Atmospheric mass density...
Loading historical data...
Loading historical data...
Loading historical data...
Loading historical data...
Loading historical data...
Loading historical data...
Loading historical data...

Documentation

Showing up to 5 results
|